Date String (YYYY-MM-DD hh:mm:ss) UTC,Instrument flags,absolute air pressure of the measurement (hPa),sample flow rate (lpm),inlet stack bypass flow (lpm),air temperature of the measurement (°C),ambient temperature measured by the external sensor (°C),aerosol sample conditioner tube jacket temperature (°C),OPC LED temperature (°C),internal box temperature (°C),relative humidity of the measurement (%),span deviation,mass concentration of particles derived from Lorenz-Mie calculation of OPC scattering (μg/m³),mass concentration of particles derived from Lorenz-Mie calculation of OPC scattering (μg/m³),mass concentration of particles derived from Lorenz-Mie calculation of OPC scattering (μg/m³)
DateTimeUTC,F1_M11,P_M11,Q1_M11,Q2_M11,T1_M11,T2_M11,T3_M11,T4_M11,T5_M11,U1_M11,ZSPAN_M11,X0_M11,X2_M11,X1_M11
2023-12-30 23:00:00,SystemResetWarning,0829.0,5.01,000.00,026.0,023.4,000.0,034.3,027.1,7.8,0000.0,0010.67,0005.00,0004.50
2023-12-30 23:01:00,SystemResetWarning,0829.0,5.00,000.00,026.0,023.7,000.0,034.3,027.2,7.8,0000.0,0010.56,0004.99,0004.51
2023-12-30 23:02:00,SystemResetWarning,0829.0,5.00,000.00,026.0,024.1,000.0,034.3,027.3,7.8,0000.0,0010.40,0005.01,0004.54
2023-12-30 23:03:00,SystemResetWarning,0829.0,5.00,000.00,026.0,024.3,000.0,034.3,027.4,7.8,0000.0,0011.10,0005.00,0004.56
2023-12-30 23:04:00,SystemResetWarning,0829.0,4.98,000.00,026.0,024.6,000.0,034.3,027.5,7.8,0000.0,0011.22,0005.02,0004.58
2023-12-30 23:05:00,SystemResetWarning,0829.0,5.02,000.00,026.1,024.8,000.0,034.3,027.6,7.8,0000.0,0011.07,0005.03,0004.59
2023-12-30 23:06:00,SystemResetWarning,0829.0,5.00,000.00,026.1,024.9,000.0,034.3,027.6,7.8,0000.0,0010.84,0005.03,0004.61
2023-12-30 23:07:00,SystemResetWarning,0829.0,4.99,000.00,026.2,025.1,000.0,034.3,027.7,7.7,0000.0,0010.78,0005.06,0004.64
2023-12-30 23:08:00,SystemResetWarning,0829.0,5.00,000.00,026.2,025.2,000.0,034.3,027.8,7.7,0000.0,0010.61,0005.08,0004.67
2023-12-30 23:09:00,SystemResetWarning,0829.0,5.02,000.00,026.2,025.3,000.0,034.3,027.8,7.7,0000.0,0010.72,0005.11,0004.70
2023-12-30 23:10:00,SystemResetWarning,0829.0,5.00,000.00,026.3,025.4,000.0,034.3,027.9,7.7,0000.0,0010.44,0005.13,0004.71
2023-12-30 23:11:00,SystemResetWarning,0829.0,5.00,000.00,026.3,025.5,000.0,034.4,027.9,7.7,0000.0,0010.43,0005.13,0004.72
2023-12-30 23:12:00,SystemResetWarning,0828.9,5.00,000.00,026.4,025.6,000.0,034.4,028.0,7.6,0000.0,0010.27,0005.17,0004.74
2023-12-30 23:13:00,SystemResetWarning,0828.9,5.00,000.00,026.4,025.6,000.0,034.4,028.0,7.6,0000.0,0010.06,0005.18,0004.73
2023-12-30 23:14:00,SystemResetWarning,0829.0,4.99,000.00,026.4,025.2,000.0,034.4,028.0,7.6,0000.0,0010.04,0005.20,0004.74
2023-12-30 23:15:00,SystemResetWarning,0828.9,5.00,000.00,026.3,023.3,000.0,034.5,027.6,7.6,0000.0,0010.05,0005.21,0004.73
2023-12-30 23:16:00,SystemResetWarning,0829.0,5.01,000.00,026.2,022.5,000.0,034.4,027.3,7.6,0000.0,0010.02,0005.21,0004.73
2023-12-30 23:17:00,SystemResetWarning,0829.0,5.01,000.00,026.0,022.7,000.0,034.3,027.0,7.7,0000.0,0009.93,0005.20,0004.71
2023-12-30 23:18:00,SystemResetWarning,0829.0,5.00,000.00,026.0,023.0,000.0,034.3,027.0,7.7,0000.0,0009.90,0005.17,0004.68
2023-12-30 23:19:00,SystemResetWarning,0829.0,5.00,000.00,025.9,023.4,000.0,034.3,027.1,7.7,0000.0,0010.01,0005.18,0004.66
2023-12-30 23:20:00,SystemResetWarning,0829.0,5.00,000.00,025.9,023.8,000.0,034.2,027.2,7.8,0000.0,0009.83,0005.11,0004.63
2023-12-30 23:21:00,SystemResetWarning,0829.0,4.99,000.00,026.0,024.1,000.0,034.2,027.3,7.8,0000.0,0009.81,0005.08,0004.62
2023-12-30 23:22:00,SystemResetWarning,0828.9,4.99,000.00,026.0,024.3,000.0,034.2,027.4,7.7,0000.0,0010.23,0005.06,0004.60
2023-12-30 23:23:00,SystemResetWarning,0828.9,5.00,000.00,026.0,024.6,000.0,034.2,027.5,7.7,0000.0,0009.97,0005.04,0004.59
2023-12-30 23:24:00,SystemResetWarning,0828.9,5.02,000.00,026.0,024.7,000.0,034.2,027.5,7.7,0000.0,0009.88,0005.01,0004.57
2023-12-30 23:25:00,SystemResetWarning,0829.0,5.00,000.00,026.1,024.9,000.0,034.2,027.6,7.7,0000.0,0009.50,0004.99,0004.54
2023-12-30 23:26:00,SystemResetWarning,0829.0,5.00,000.00,026.1,025.0,000.0,034.2,027.7,7.7,0000.0,0009.24,0004.96,0004.52
2023-12-30 23:27:00,SystemResetWarning,0829.1,4.99,000.00,026.2,025.2,000.0,034.3,027.7,7.7,0000.0,0009.85,0004.94,0004.50
2023-12-30 23:28:00,SystemResetWarning,0829.1,5.00,000.00,026.2,025.3,000.0,034.3,027.8,7.7,0000.0,0010.73,0004.92,0004.50
2023-12-30 23:29:00,SystemResetWarning,0829.1,5.01,000.00,026.2,025.3,000.0,034.3,027.8,7.8,0000.0,0011.47,0004.92,0004.49
2023-12-30 23:30:00,SystemResetWarning,0829.1,5.01,000.00,026.3,025.4,000.0,034.3,027.8,8.0,0000.0,0011.31,0004.86,0004.47
2023-12-30 23:31:00,SystemResetWarning,0829.1,5.00,000.00,026.3,025.5,000.0,034.3,027.9,8.1,0000.0,0011.31,0004.85,0004.47
2023-12-30 23:32:00,SystemResetWarning,0829.1,5.01,000.00,026.4,025.5,000.0,034.4,027.9,8.2,0000.0,0011.24,0004.83,0004.47
2023-12-30 23:33:00,SystemResetWarning,0829.1,5.00,000.00,026.4,025.6,000.0,034.4,027.9,8.2,0000.0,0010.76,0004.84,0004.47
2023-12-30 23:34:00,SystemResetWarning,0829.1,5.00,000.00,026.4,025.6,000.0,034.4,028.0,8.1,0000.0,0010.60,0004.86,0004.47
2023-12-30 23:35:00,SystemResetWarning,0829.1,5.00,000.00,026.4,025.7,000.0,034.5,028.0,8.0,0000.0,0011.15,0004.86,0004.47
2023-12-30 23:36:00,SystemResetWarning,0829.1,5.00,000.00,026.5,025.7,000.0,034.5,028.0,8.0,0000.0,0011.34,0004.84,0004.47
2023-12-30 23:37:00,SystemResetWarning,0829.1,5.00,000.00,026.5,025.7,000.0,034.5,028.1,8.0,0000.0,0011.16,0004.84,0004.48
2023-12-30 23:38:00,SystemResetWarning,0829.1,4.99,000.00,026.5,025.2,000.0,034.5,028.0,8.0,0000.0,0010.87,0004.85,0004.48
2023-12-30 23:39:00,SystemResetWarning,0829.1,5.00,000.00,026.4,023.1,000.0,034.5,027.5,8.0,0000.0,0010.38,0004.85,0004.47
2023-12-30 23:40:00,SystemResetWarning,0829.0,5.01,000.00,026.2,022.3,000.0,034.5,027.3,8.0,0000.0,0009.53,0004.83,0004.44
2023-12-30 23:41:00,SystemResetWarning,0829.0,5.01,000.00,026.0,022.4,000.0,034.4,026.9,8.1,0000.0,0009.55,0004.82,0004.41
2023-12-30 23:42:00,SystemResetWarning,0829.0,4.99,000.00,025.9,022.8,000.0,034.4,026.9,8.1,0000.0,0009.54,0004.79,0004.36
2023-12-30 23:43:00,SystemResetWarning,0829.1,5.00,000.00,025.9,023.2,000.0,034.3,027.0,8.1,0000.0,0009.59,0004.77,0004.29
2023-12-30 23:44:00,SystemResetWarning,0829.1,5.01,000.00,025.9,023.5,000.0,034.3,027.1,8.1,0000.0,0009.50,0004.70,0004.23
2023-12-30 23:45:00,SystemResetWarning,0829.1,5.01,000.00,025.9,023.8,000.0,034.2,027.2,8.1,0000.0,0009.33,0004.61,0004.18
2023-12-30 23:46:00,SystemResetWarning,0829.1,4.98,000.00,025.9,024.0,000.0,034.2,027.2,8.1,0000.0,0008.90,0004.54,0004.13
2023-12-30 23:47:00,SystemResetWarning,0829.1,4.99,000.00,025.9,024.3,000.0,034.2,027.3,8.1,0000.0,0008.18,0004.48,0004.09
2023-12-30 23:48:00,SystemResetWarning,0829.1,5.01,000.00,025.9,024.4,000.0,034.2,027.3,8.1,0000.0,0008.27,0004.43,0004.05
2023-12-30 23:49:00,SystemResetWarning,0829.1,5.01,000.00,026.0,024.6,000.0,034.2,027.4,8.1,0000.0,0008.44,0004.42,0004.01
2023-12-30 23:50:00,SystemResetWarning,0829.2,4.99,000.00,026.0,024.7,000.0,034.2,027.4,8.2,0000.0,0008.04,0004.41,0003.98
2023-12-30 23:51:00,SystemResetWarning,0829.2,4.99,000.00,026.0,024.8,000.0,034.2,027.5,8.2,0000.0,0009.16,0004.39,0003.97
2023-12-30 23:52:00,SystemResetWarning,0829.2,4.99,000.00,026.0,024.8,000.0,034.2,027.5,8.1,0000.0,0009.59,0004.37,0003.99
2023-12-30 23:53:00,SystemResetWarning,0829.2,5.01,000.00,026.0,024.9,000.0,034.2,027.5,8.1,0000.0,0009.60,0004.39,0004.01
2023-12-30 23:54:00,SystemResetWarning,0829.2,5.01,000.00,026.1,024.9,000.0,034.2,027.5,8.1,0000.0,0010.14,0004.39,0004.05
2023-12-30 23:55:00,SystemResetWarning,0829.2,5.00,000.00,026.1,025.0,000.0,034.2,027.5,8.1,0000.0,0010.20,0004.44,0004.08
2023-12-30 23:56:00,SystemResetWarning,0829.2,5.00,000.00,026.1,025.0,000.0,034.2,027.6,8.1,0000.0,0010.58,0004.46,0004.09
2023-12-30 23:57:00,SystemResetWarning,0829.3,5.00,000.00,026.1,025.0,000.0,034.3,027.6,8.0,0000.0,0010.95,0004.48,0004.10
2023-12-30 23:58:00,SystemResetWarning,0829.2,5.00,000.00,026.1,025.1,000.0,034.3,027.6,8.1,0000.0,0010.95,0004.48,0004.10
2023-12-30 23:59:00,SystemResetWarning,0829.2,5.00,000.00,026.2,025.1,000.0,034.3,027.6,8.1,0000.0,0010.79,0004.49,0004.10
